• In Belarus
  • List of Countries
  • For 7 days
  • Water Temperature
  • Weather Map
  • Weather Widgets
  • user-avatar
    Login

    Hourly Weather Namyur

    Today, 4 June, Thursday

    Time Temperature Precipitation Wind Pressure Humidity
    00:00 +12°C° 0 mm 2 mps 740 mmHg 95%
    01:00 +13°C° 0 mm 2 mps 739 mmHg 95%
    02:00 +13°C° 0 mm 2 mps 739 mmHg 94%
    03:00 +14°C° 0 mm 2 mps 738 mmHg 93%
    04:00 +14°C° 0.3 mm 2 mps 738 mmHg 92%
    05:00 +13°C° 0.3 mm 3 mps 738 mmHg 91%
    06:00 +13°C° 0 mm 4 mps 738 mmHg 86%
    07:00 +13°C° 0 mm 4 mps 738 mmHg 83%
    08:00 +14°C° 0 mm 4 mps 738 mmHg 80%
    09:00 +14°C° 0 mm 5 mps 738 mmHg 77%
    10:00 +14°C° 0.1 mm 5 mps 738 mmHg 76%
    11:00 +14°C° 0.1 mm 5 mps 738 mmHg 74%
    12:00 +14°C° 0.1 mm 5 mps 738 mmHg 73%
    13:00 +14°C° 0.4 mm 4 mps 738 mmHg 77%
    14:00 +13°C° 0.4 mm 4 mps 738 mmHg 82%
    15:00 +13°C° 0.4 mm 3 mps 738 mmHg 87%
    16:00 +12°C° 0.3 mm 3 mps 738 mmHg 87%
    17:00 +12°C° 0.3 mm 3 mps 738 mmHg 88%
    18:00 +11°C° 0.3 mm 3 mps 738 mmHg 89%
    19:00 +10°C° 0.1 mm 3 mps 738 mmHg 90%
    20:00 +9°C° 0.1 mm 2 mps 739 mmHg 91%
    21:00 +8°C° 0.1 mm 2 mps 739 mmHg 92%
    22:00 +8°C° 0 mm 2 mps 739 mmHg 93%
    23:00 +7°C° 0 mm 2 mps 739 mmHg 93%

    Tomorrow, 5 June, Friday

    Time Temperature Precipitation Wind Pressure Humidity
    00:00 +7°C° 0 mm 3 mps 739 mmHg 94%
    01:00 +7°C° 0 mm 3 mps 739 mmHg 94%
    02:00 +7°C° 0 mm 3 mps 738 mmHg 94%
    03:00 +6°C° 0 mm 4 mps 738 mmHg 94%
    04:00 +7°C° 0.3 mm 5 mps 738 mmHg 94%
    05:00 +8°C° 0.3 mm 5 mps 737 mmHg 94%
    06:00 +8°C° 0.3 mm 6 mps 737 mmHg 93%
    07:00 +9°C° 0.7 mm 7 mps 736 mmHg 93%
    08:00 +9°C° 0.7 mm 7 mps 736 mmHg 93%
    09:00 +9°C° 0.7 mm 7 mps 735 mmHg 93%
    10:00 +10°C° 1.5 mm 8 mps 735 mmHg 88%
    11:00 +11°C° 1.5 mm 8 mps 735 mmHg 82%
    12:00 +12°C° 1.5 mm 8 mps 735 mmHg 77%
    13:00 +13°C° 0.4 mm 8 mps 735 mmHg 73%
    14:00 +13°C° 0.4 mm 9 mps 736 mmHg 69%
    15:00 +13°C° 0.4 mm 9 mps 736 mmHg 65%
    16:00 +12°C° 0.5 mm 8 mps 736 mmHg 72%
    17:00 +10°C° 0.5 mm 6 mps 736 mmHg 79%
    18:00 +9°C° 0.5 mm 5 mps 737 mmHg 86%
    19:00 +8°C° 0.1 mm 5 mps 737 mmHg 88%
    20:00 +7°C° 0.1 mm 5 mps 738 mmHg 89%
    21:00 +6°C° 0.1 mm 4 mps 739 mmHg 91%
    22:00 +6°C° 0 mm 5 mps 739 mmHg 91%
    23:00 +6°C° 0 mm 5 mps 738 mmHg 92%

    Day after tomorrow, 6 June, Saturday

    Time Temperature Precipitation Wind Pressure Humidity
    00:00 +5°C° 0 mm 6 mps 738 mmHg 92%
    01:00 +6°C° 0.1 mm 5 mps 739 mmHg 92%
    02:00 +6°C° 0.1 mm 5 mps 739 mmHg 92%
    03:00 +6°C° 0.1 mm 5 mps 739 mmHg 92%
    04:00 +6°C° 0.1 mm 5 mps 739 mmHg 92%
    05:00 +7°C° 0.1 mm 6 mps 739 mmHg 91%
    06:00 +8°C° 0.1 mm 6 mps 739 mmHg 90%
    07:00 +9°C° 0.1 mm 7 mps 739 mmHg 80%
    08:00 +10°C° 0.1 mm 8 mps 739 mmHg 70%
    09:00 +12°C° 0.1 mm 9 mps 739 mmHg 60%
    10:00 +12°C° 0.1 mm 9 mps 739 mmHg 59%
    11:00 +13°C° 0.1 mm 9 mps 739 mmHg 57%
    12:00 +13°C° 0.1 mm 10 mps 739 mmHg 55%
    13:00 +13°C° 0 mm 10 mps 739 mmHg 56%
    14:00 +13°C° 0 mm 9 mps 740 mmHg 57%
    15:00 +12°C° 0 mm 9 mps 740 mmHg 58%
    16:00 +11°C° 0 mm 8 mps 740 mmHg 62%
    17:00 +11°C° 0 mm 8 mps 740 mmHg 66%
    18:00 +10°C° 0 mm 8 mps 740 mmHg 69%
    19:00 +10°C° 0 mm 7 mps 741 mmHg 73%
    20:00 +9°C° 0 mm 7 mps 741 mmHg 76%
    21:00 +9°C° 0 mm 7 mps 742 mmHg 79%
    22:00 +9°C° 0.1 mm 7 mps 742 mmHg 80%
    23:00 +9°C° 0.1 mm 6 mps 742 mmHg 82%

    7 June, Sunday

    Time Temperature Precipitation Wind Pressure Humidity
    00:00 +9°C° 0.1 mm 6 mps 742 mmHg 83%
    01:00 +9°C° 0 mm 6 mps 743 mmHg 85%
    02:00 +9°C° 0 mm 6 mps 743 mmHg 87%
    03:00 +8°C° 0 mm 5 mps 743 mmHg 89%
    04:00 +9°C° 0 mm 5 mps 744 mmHg 88%
    05:00 +9°C° 0 mm 5 mps 744 mmHg 87%
    06:00 +10°C° 0 mm 5 mps 744 mmHg 86%
    07:00 +12°C° 0 mm 5 mps 745 mmHg 82%
    08:00 +13°C° 0 mm 5 mps 745 mmHg 79%
    09:00 +14°C° 0 mm 5 mps 745 mmHg 75%
    10:00 +15°C° 0.1 mm 5 mps 745 mmHg 70%
    11:00 +16°C° 0.1 mm 5 mps 745 mmHg 65%
    12:00 +18°C° 0.1 mm 4 mps 745 mmHg 61%
    13:00 +18°C° 0.7 mm 4 mps 745 mmHg 65%
    14:00 +18°C° 0.7 mm 4 mps 745 mmHg 70%
    15:00 +18°C° 0.7 mm 4 mps 745 mmHg 75%
    16:00 +17°C° 0.5 mm 4 mps 745 mmHg 77%
    17:00 +17°C° 0.5 mm 3 mps 745 mmHg 80%
    18:00 +16°C° 0.5 mm 2 mps 745 mmHg 82%
    19:00 +15°C° 0.2 mm 2 mps 746 mmHg 84%
    20:00 +13°C° 0.2 mm 2 mps 746 mmHg 86%
    21:00 +12°C° 0.2 mm 2 mps 746 mmHg 88%
    22:00 +10°C° 0 mm 2 mps 746 mmHg 89%
    23:00 +10°C° 0 mm 1 mps 746 mmHg 90%

    8 June, Monday

    Time Temperature Precipitation Wind Pressure Humidity
    00:00 +10°C° 0 mm 1 mps 746 mmHg 91%
    01:00 +9°C° 0 mm 1 mps 746 mmHg 92%
    02:00 +9°C° 0 mm 1 mps 746 mmHg 93%
    03:00 +7°C° 0 mm 2 mps 746 mmHg 93%
    04:00 +8°C° 0 mm 2 mps 747 mmHg 92%
    05:00 +10°C° 0 mm 2 mps 747 mmHg 91%
    06:00 +12°C° 0 mm 2 mps 747 mmHg 90%
    07:00 +13°C° 0 mm 2 mps 747 mmHg 83%
    08:00 +14°C° 0 mm 2 mps 747 mmHg 77%
    09:00 +16°C° 0 mm 2 mps 747 mmHg 70%
    10:00 +17°C° 0.1 mm 2 mps 747 mmHg 68%
    11:00 +17°C° 0.1 mm 2 mps 747 mmHg 65%
    12:00 +18°C° 0.1 mm 2 mps 747 mmHg 62%
    13:00 +18°C° 0.1 mm 2 mps 747 mmHg 61%
    14:00 +19°C° 0.1 mm 2 mps 747 mmHg 60%
    15:00 +19°C° 0.1 mm 2 mps 747 mmHg 59%
    16:00 +18°C° 0.2 mm 2 mps 747 mmHg 66%
    17:00 +18°C° 0.2 mm 2 mps 747 mmHg 72%
    18:00 +18°C° 0.2 mm 1 mps 747 mmHg 78%
    19:00 +16°C° 0.2 mm 1 mps 748 mmHg 82%
    20:00 +14°C° 0.2 mm 1 mps 748 mmHg 85%
    21:00 +12°C° 0.2 mm 1 mps 748 mmHg 89%
    22:00 +12°C° 0 mm 1 mps 748 mmHg 89%
    23:00 +11°C° 0 mm 1 mps 748 mmHg 90%

    9 June, Tuesday

    Time Temperature Precipitation Wind Pressure Humidity
    00:00 +11°C° 0 mm 1 mps 749 mmHg 90%
    01:00 +11°C° 0.1 mm 1 mps 749 mmHg 91%
    02:00 +11°C° 0.1 mm 1 mps 749 mmHg 92%
    03:00 +10°C° 0.1 mm 1 mps 749 mmHg 93%
    04:00 +11°C° 0.1 mm 1 mps 749 mmHg 93%
    05:00 +12°C° 0.1 mm 1 mps 749 mmHg 93%
    06:00 +13°C° 0.1 mm 1 mps 750 mmHg 92%
    07:00 +14°C° 0.2 mm 1 mps 750 mmHg 89%
    08:00 +15°C° 0.2 mm 1 mps 750 mmHg 86%
    09:00 +16°C° 0.2 mm 1 mps 750 mmHg 83%
    10:00 +17°C° 0.8 mm 2 mps 750 mmHg 80%
    11:00 +18°C° 0.8 mm 2 mps 750 mmHg 77%
    12:00 +19°C° 0.8 mm 2 mps 750 mmHg 73%
    13:00 +19°C° 1.2 mm 3 mps 750 mmHg 75%
    14:00 +19°C° 1.2 mm 3 mps 749 mmHg 76%
    15:00 +19°C° 1.2 mm 4 mps 749 mmHg 78%
    16:00 +18°C° 0.8 mm 3 mps 749 mmHg 81%
    17:00 +18°C° 0.8 mm 3 mps 750 mmHg 84%
    18:00 +17°C° 0.8 mm 3 mps 750 mmHg 87%
    19:00 +16°C° 0.3 mm 3 mps 750 mmHg 89%
    20:00 +15°C° 0.3 mm 2 mps 751 mmHg 91%
    21:00 +14°C° 0.3 mm 2 mps 751 mmHg 93%
    22:00 +13°C° 0.3 mm 2 mps 751 mmHg 95%
    23:00 +13°C° 0.3 mm 2 mps 751 mmHg 96%
    Show more